QTR912 EDDF-OTHH

Flight info

Callsign QTR912
Flight time N/A
Altitude 37000
Route CINDY6F/25L CINDY Z74 LAMPU DCT NOMBO Y161 MAH DCT VAVOR DCT RADIZ/N0473F390 DCT NEMEK DCT VRANA DCT DIMIS DCT IPTES UL604 SALUN N705 MMA P751 DASUM Y234 FYM M872 WEJ/N0479F410 L604 GAS G662 KSA N687 KINIB Z511 GISRA L681 ORLEK
Aircraft A35K/H-SDE2E3GHIJ1J3J4J5LM1ORWXY/LB1D1

Departure

Time N/A
Airport Frankfurt Main Airport (EDDF)

Arrival

Time 2026-05-04 15:11
Airport Hamad International Airport (OTHH)
Time Latitude Longitude Altitude Speed Heading
2026-05-04 13:42 26.45434 39.67347 38946 ft 552 kts 90°
2026-05-04 13:42 26.45849 39.75891 38950 ft 551 kts 90°
2026-05-04 13:43 26.46257 39.84436 38937 ft 551 kts 91°
2026-05-04 13:43 26.46659 39.92973 38950 ft 550 kts 91°
2026-05-04 13:44 26.47054 40.01499 38951 ft 550 kts 91°
2026-05-04 13:44 26.47441 40.09959 38947 ft 550 kts 91°
2026-05-04 13:45 26.47826 40.18489 38949 ft 550 kts 91°
2026-05-04 13:45 26.48206 40.27016 38944 ft 550 kts 91°
2026-05-04 13:46 26.48582 40.35570 38948 ft 553 kts 91°
2026-05-04 13:46 26.48954 40.44137 38946 ft 553 kts 91°
2026-05-04 13:47 26.49321 40.52713 38947 ft 553 kts 91°
2026-05-04 13:47 26.49684 40.61301 38946 ft 554 kts 91°
2026-05-04 13:48 26.50042 40.69902 38949 ft 554 kts 91°
2026-05-04 13:48 26.50392 40.78503 38950 ft 555 kts 91°
2026-05-04 13:49 26.50738 40.87101 38949 ft 555 kts 91°
2026-05-04 13:49 26.51079 40.95697 38946 ft 554 kts 91°
2026-05-04 13:50 26.51326 41.04289 38955 ft 551 kts 97°
2026-05-04 13:50 26.50870 41.12748 38955 ft 549 kts 99°
2026-05-04 13:51 26.50276 41.21232 39128 ft 549 kts 99°
2026-05-04 13:51 26.49959 41.25546 39398 ft 550 kts 99°
2026-05-04 13:51 26.49648 41.29803 39754 ft 549 kts 99°
2026-05-04 13:52 26.49041 41.38211 40545 ft 543 kts 100°
2026-05-04 13:52 26.48742 41.42393 41039 ft 539 kts 100°
2026-05-04 13:52 26.48443 41.46549 41384 ft 538 kts 100°
2026-05-04 13:53 26.48141 41.50714 41671 ft 537 kts 100°
2026-05-04 13:53 26.47838 41.54864 41949 ft 537 kts 100°
2026-05-04 13:53 26.47535 41.59014 42263 ft 535 kts 100°
2026-05-04 13:54 26.46930 41.67248 42895 ft 532 kts 100°
2026-05-04 13:54 26.46623 41.71383 42939 ft 537 kts 100°
2026-05-04 13:55 26.45675 41.83997 42930 ft 549 kts 100°
2026-05-04 13:55 26.44722 41.96711 42927 ft 548 kts 100°
2026-05-04 13:56 26.44079 42.05177 42931 ft 548 kts 100°
2026-05-04 13:57 26.43100 42.17903 42925 ft 549 kts 100°
2026-05-04 13:58 26.41781 42.34835 42930 ft 547 kts 100°
2026-05-04 13:58 26.40779 42.47513 42924 ft 547 kts 100°
2026-05-04 13:59 26.40106 42.55956 42922 ft 548 kts 100°
2026-05-04 14:00 26.39084 42.68649 42924 ft 548 kts 100°
2026-05-04 14:00 26.38168 42.79907 42913 ft 547 kts 100°
2026-05-04 14:01 26.37475 42.88358 42900 ft 547 kts 100°
2026-05-04 14:02 26.36427 43.01022 42906 ft 547 kts 101°
2026-05-04 14:02 26.35723 43.09464 42903 ft 546 kts 101°
2026-05-04 14:03 26.35014 43.17889 42895 ft 546 kts 101°
2026-05-04 14:03 26.34299 43.26313 42887 ft 546 kts 101°
2026-05-04 14:04 26.33218 43.38946 42882 ft 546 kts 101°
2026-05-04 14:04 26.32492 43.47363 42865 ft 546 kts 101°
2026-05-04 14:05 26.31394 43.59993 42860 ft 546 kts 101°
2026-05-04 14:06 26.30660 43.68357 42855 ft 545 kts 101°
2026-05-04 14:06 26.29643 43.76685 42857 ft 537 kts 111°
2026-05-04 14:06 26.28466 43.80584 42858 ft 526 kts 121°
2026-05-04 14:07 26.26952 43.84281 42844 ft 523 kts 123°
2026-05-04 14:07 26.23688 43.91507 42863 ft 521 kts 125°
2026-05-04 14:08 26.20338 43.98666 42864 ft 521 kts 125°
2026-05-04 14:08 26.17003 44.05827 42861 ft 521 kts 124°
2026-05-04 14:09 26.12040 44.16565 42873 ft 520 kts 124°
2026-05-04 14:10 26.07080 44.27291 42871 ft 519 kts 124°
2026-05-04 14:10 26.03773 44.34426 42876 ft 519 kts 124°
2026-05-04 14:11 26.00462 44.41553 42879 ft 519 kts 124°
2026-05-04 14:11 25.95494 44.52228 42883 ft 518 kts 124°
2026-05-04 14:12 25.92183 44.59330 42881 ft 518 kts 124°
2026-05-04 14:13 25.87209 44.69975 42872 ft 518 kts 124°
2026-05-04 14:13 25.83891 44.77065 42876 ft 518 kts 124°
2026-05-04 14:14 25.80562 44.84152 42896 ft 517 kts 124°
2026-05-04 14:14 25.75571 44.94756 42883 ft 517 kts 124°
2026-05-04 14:15 25.68910 45.08874 42878 ft 516 kts 124°
2026-05-04 14:16 25.63928 45.19422 42887 ft 514 kts 124°
2026-05-04 14:17 25.58940 45.29950 42891 ft 514 kts 124°
2026-05-04 14:18 25.53974 45.40412 42886 ft 514 kts 124°
2026-05-04 14:19 25.47306 45.54422 42884 ft 514 kts 124°
2026-05-04 14:19 25.43968 45.61420 42883 ft 513 kts 124°
2026-05-04 14:20 25.40637 45.68394 42883 ft 512 kts 124°
2026-05-04 14:20 25.37305 45.75357 42887 ft 512 kts 124°
2026-05-04 14:21 25.32492 45.85914 42868 ft 514 kts 121°
2026-05-04 14:21 25.29528 45.93107 42895 ft 514 kts 121°
2026-05-04 14:22 25.26549 46.00274 42892 ft 513 kts 121°
2026-05-04 14:22 25.23530 46.07410 42886 ft 513 kts 121°
2026-05-04 14:23 25.18966 46.18108 42896 ft 513 kts 121°
2026-05-04 14:24 25.15922 46.25228 42895 ft 513 kts 121°
2026-05-04 14:24 25.12874 46.32353 42892 ft 513 kts 121°
2026-05-04 14:25 25.09825 46.39470 42888 ft 513 kts 121°
2026-05-04 14:25 25.05247 46.50134 42891 ft 512 kts 121°
2026-05-04 14:26 25.02209 46.57243 42863 ft 514 kts 119°
2026-05-04 14:26 25.00314 46.64910 42884 ft 526 kts 99°
2026-05-04 14:27 25.00258 46.68954 42885 ft 531 kts 88°
2026-05-04 14:27 25.00875 46.72972 42884 ft 535 kts 76°
2026-05-04 14:27 25.03616 46.80615 42883 ft 538 kts 66°
2026-05-04 14:28 25.06769 46.88046 42884 ft 539 kts 65°
2026-05-04 14:28 25.09961 46.95525 42883 ft 539 kts 65°
2026-05-04 14:29 25.16239 47.10576 42878 ft 541 kts 66°
2026-05-04 14:30 25.19362 47.18129 42873 ft 541 kts 66°
2026-05-04 14:31 25.24044 47.29469 42869 ft 541 kts 66°
2026-05-04 14:32 25.30266 47.44577 42861 ft 540 kts 66°
2026-05-04 14:32 25.33368 47.52130 42853 ft 540 kts 66°
2026-05-04 14:33 25.36468 47.59690 42861 ft 540 kts 66°
2026-05-04 14:33 25.39566 47.67259 42837 ft 541 kts 66°
2026-05-04 14:34 25.42662 47.74846 42833 ft 541 kts 66°
2026-05-04 14:34 25.45756 47.82442 42846 ft 541 kts 66°
2026-05-04 14:35 25.48844 47.90033 42838 ft 541 kts 66°
2026-05-04 14:35 25.51903 47.97569 42835 ft 541 kts 66°
2026-05-04 14:36 25.54980 48.05167 42830 ft 540 kts 66°
2026-05-04 14:36 25.58057 48.12757 42826 ft 540 kts 66°
2026-05-04 14:37 25.61127 48.20347 42824 ft 540 kts 66°
2026-05-04 14:37 25.64192 48.27943 42826 ft 540 kts 66°
2026-05-04 14:38 25.67102 48.35622 42820 ft 540 kts 74°
2026-05-04 14:38 25.68182 48.43766 42816 ft 532 kts 94°
2026-05-04 14:39 25.67842 48.51950 42809 ft 532 kts 97°
2026-05-04 14:39 25.67271 48.60125 42807 ft 532 kts 98°
2026-05-04 14:40 25.66418 48.72377 42804 ft 531 kts 97°
2026-05-04 14:40 25.65881 48.80532 42799 ft 530 kts 97°
2026-05-04 14:41 25.65346 48.88684 42793 ft 530 kts 97°
2026-05-04 14:42 25.64262 49.04991 42429 ft 530 kts 97°
2026-05-04 14:42 25.63988 49.09061 42165 ft 531 kts 97°
2026-05-04 14:42 25.63711 49.13148 41897 ft 532 kts 97°
2026-05-04 14:43 25.63437 49.17177 41639 ft 532 kts 97°
2026-05-04 14:43 25.63158 49.21267 41337 ft 532 kts 97°
2026-05-04 14:43 25.62879 49.25352 40544 ft 533 kts 97°
2026-05-04 14:43 25.62597 49.29457 39702 ft 536 kts 97°
2026-05-04 14:44 25.62313 49.33582 38872 ft 538 kts 97°
2026-05-04 14:44 25.62028 49.37722 38116 ft 538 kts 97°
2026-05-04 14:44 25.61741 49.41848 37435 ft 536 kts 97°
2026-05-04 14:44 25.61454 49.45950 36792 ft 533 kts 97°
2026-05-04 14:45 25.61167 49.50023 36144 ft 530 kts 97°
2026-05-04 14:45 25.60880 49.54093 35487 ft 528 kts 97°
2026-05-04 14:45 25.60592 49.58141 34816 ft 527 kts 97°
2026-05-04 14:45 25.60305 49.62176 34290 ft 522 kts 96°
2026-05-04 14:46 25.60021 49.66162 33800 ft 517 kts 96°
2026-05-04 14:46 25.59738 49.70118 33250 ft 512 kts 96°
2026-05-04 14:46 25.59458 49.74032 32738 ft 506 kts 96°
2026-05-04 14:46 25.59180 49.77894 32253 ft 500 kts 96°
2026-05-04 14:47 25.58904 49.81711 31771 ft 495 kts 96°
2026-05-04 14:47 25.58630 49.85483 31291 ft 489 kts 96°
2026-05-04 14:47 25.58357 49.89214 30824 ft 483 kts 96°
2026-05-04 14:47 25.58087 49.92907 30355 ft 478 kts 96°
2026-05-04 14:48 25.57819 49.96562 29891 ft 473 kts 96°
2026-05-04 14:48 25.57552 50.00178 29385 ft 468 kts 96°
2026-05-04 14:48 25.57289 50.03741 28917 ft 462 kts 96°
2026-05-04 14:48 25.57027 50.07265 28474 ft 456 kts 96°
2026-05-04 14:49 25.56767 50.10757 28027 ft 454 kts 96°
2026-05-04 14:49 25.56594 50.13061 27733 ft 452 kts 96°
2026-05-04 14:49 25.56111 50.17656 27130 ft 444 kts 105°
2026-05-04 14:49 25.55272 50.20912 26710 ft 437 kts 110°
2026-05-04 14:50 25.54657 50.23029 26423 ft 435 kts 110°
2026-05-04 14:50 25.53712 50.26203 25985 ft 433 kts 111°
2026-05-04 14:50 25.52767 50.29346 25549 ft 429 kts 111°
2026-05-04 14:50 25.51826 50.32466 25114 ft 425 kts 111°
2026-05-04 14:51 25.50891 50.35554 24670 ft 420 kts 111°
2026-05-04 14:51 25.49964 50.38607 24243 ft 416 kts 110°
2026-05-04 14:51 25.49049 50.41620 23818 ft 411 kts 110°
2026-05-04 14:51 25.48141 50.44603 23386 ft 407 kts 110°
2026-05-04 14:52 25.47241 50.47558 22893 ft 403 kts 110°
2026-05-04 14:52 25.46352 50.50478 22452 ft 399 kts 110°
2026-05-04 14:52 25.45465 50.53383 22036 ft 398 kts 110°
2026-05-04 14:52 25.44582 50.56275 21615 ft 395 kts 110°
2026-05-04 14:53 25.43707 50.59138 21184 ft 392 kts 110°
2026-05-04 14:53 25.42828 50.62010 20855 ft 400 kts 110°
2026-05-04 14:53 25.41874 50.64947 20512 ft 409 kts 113°
2026-05-04 14:53 25.40823 50.67870 19833 ft 408 kts 114°
2026-05-04 14:54 25.39769 50.70774 19246 ft 405 kts 113°
2026-05-04 14:54 25.38734 50.73652 18729 ft 400 kts 113°
2026-05-04 14:54 25.37719 50.76490 18234 ft 394 kts 113°
2026-05-04 14:54 25.36720 50.79294 17706 ft 390 kts 112°
2026-05-04 14:55 25.35733 50.82070 17197 ft 387 kts 112°
2026-05-04 14:55 25.34753 50.84827 16712 ft 385 kts 112°
2026-05-04 14:55 25.33776 50.87572 16233 ft 382 kts 112°
2026-05-04 14:55 25.32806 50.90301 15751 ft 380 kts 112°
2026-05-04 14:56 25.31843 50.93009 15281 ft 378 kts 112°
2026-05-04 14:56 25.30896 50.95669 14816 ft 376 kts 112°
2026-05-04 14:56 25.29942 50.98348 14331 ft 373 kts 112°
2026-05-04 14:56 25.28994 51.01009 13872 ft 371 kts 112°
2026-05-04 14:57 25.28052 51.03652 13385 ft 369 kts 112°
2026-05-04 14:57 25.27163 51.06299 12904 ft 367 kts 106°
2026-05-04 14:57 25.26813 51.09070 12451 ft 363 kts 90°
2026-05-04 14:57 25.26825 51.11850 11994 ft 361 kts 88°
2026-05-04 14:58 25.26876 51.14614 11542 ft 358 kts 87°
2026-05-04 14:58 25.26921 51.17357 11251 ft 357 kts 88°
2026-05-04 14:58 25.26959 51.20084 10946 ft 351 kts 87°
2026-05-04 14:58 25.26990 51.22718 10737 ft 336 kts 87°
2026-05-04 14:59 25.26971 51.25255 10449 ft 326 kts 92°
2026-05-04 14:59 25.26595 51.27702 10032 ft 322 kts 101°
2026-05-04 14:59 25.25581 51.32373 9484 ft 311 kts 101°
2026-05-04 15:00 25.25077 51.34697 9295 ft 311 kts 101°
2026-05-04 15:00 25.24576 51.37024 9115 ft 311 kts 101°
2026-05-04 15:00 25.24077 51.39350 8942 ft 311 kts 101°
2026-05-04 15:01 25.23085 51.43981 8579 ft 309 kts 101°
2026-05-04 15:01 25.22546 51.46279 8395 ft 310 kts 106°
2026-05-04 15:01 25.21438 51.48305 8238 ft 312 kts 135°
2026-05-04 15:01 25.19620 51.49581 8045 ft 310 kts 158°
2026-05-04 15:02 25.17615 51.50456 7873 ft 310 kts 160°
2026-05-04 15:02 25.15597 51.51301 7692 ft 310 kts 160°
2026-05-04 15:02 25.13593 51.52156 7528 ft 308 kts 159°
2026-05-04 15:02 25.11598 51.53019 7342 ft 308 kts 159°
2026-05-04 15:03 25.09635 51.53878 7202 ft 296 kts 159°
2026-05-04 15:03 25.07785 51.54692 7028 ft 285 kts 159°
2026-05-04 15:03 25.05966 51.55489 6721 ft 280 kts 159°
2026-05-04 15:03 25.04174 51.56280 6468 ft 274 kts 159°
2026-05-04 15:04 25.02421 51.57049 6198 ft 271 kts 159°
2026-05-04 15:04 25.00725 51.57943 5903 ft 271 kts 144°
2026-05-04 15:04 24.99570 51.59523 5644 ft 264 kts 107°
2026-05-04 15:04 24.99402 51.61457 5320 ft 250 kts 73°
2026-05-04 15:05 24.99952 51.63241 4971 ft 243 kts 62°
2026-05-04 15:05 25.00615 51.64950 4711 ft 242 kts 62°
2026-05-04 15:05 25.01268 51.66649 4467 ft 240 kts 62°
2026-05-04 15:05 25.02015 51.68269 4229 ft 235 kts 49°
2026-05-04 15:06 25.03308 51.69235 4008 ft 223 kts 12°
2026-05-04 15:06 25.04837 51.69382 3784 ft 221 kts 355°
2026-05-04 15:06 25.06334 51.69019 3659 ft 222 kts 341°
2026-05-04 15:07 25.09186 51.67745 3276 ft 217 kts 339°
2026-05-04 15:07 25.10580 51.67141 3002 ft 213 kts 340°
2026-05-04 15:07 25.11939 51.66544 2736 ft 206 kts 339°
2026-05-04 15:07 25.13237 51.65970 2471 ft 197 kts 339°
2026-05-04 15:08 25.14460 51.65430 2223 ft 180 kts 340°
2026-05-04 15:08 25.15564 51.64943 2005 ft 162 kts 339°
2026-05-04 15:08 25.16565 51.64502 1813 ft 148 kts 339°
2026-05-04 15:08 25.17478 51.64099 1624 ft 135 kts 338°
2026-05-04 15:09 25.18316 51.63730 1465 ft 126 kts 338°
2026-05-04 15:09 25.19121 51.63374 1318 ft 124 kts 337°
2026-05-04 15:09 25.19922 51.63020 1155 ft 125 kts 339°
2026-05-04 15:10 25.21537 51.62307 849 ft 124 kts 338°
2026-05-04 15:10 25.22345 51.61958 697 ft 125 kts 339°
2026-05-04 15:10 25.23942 51.61226 407 ft 126 kts 337°
2026-05-04 15:11 25.24755 51.60881 254 ft 127 kts 339°
2026-05-04 15:11 25.25564 51.60530 86 ft 125 kts 340°
2026-05-04 15:11 25.26333 51.60192 33 ft 106 kts 338°
2026-05-04 15:11 25.26840 51.59974 31 ft 35 kts 343°
2026-05-04 15:12 25.27053 51.59955 31 ft 17 kts
2026-05-04 15:12 25.27117 51.60010 34 ft 11 kts 89°
2026-05-04 15:12 25.27060 51.60073 34 ft 14 kts 155°
2026-05-04 15:12 25.26950 51.60123 34 ft 20 kts 158°
2026-05-04 15:13 25.26807 51.60185 34 ft 24 kts 158°
2026-05-04 15:13 25.26635 51.60261 34 ft 29 kts 157°
2026-05-04 15:13 25.26449 51.60345 35 ft 22 kts 158°
2026-05-04 15:13 25.26324 51.60400 36 ft 21 kts 158°
2026-05-04 15:14 25.26173 51.60466 35 ft 26 kts 158°
2026-05-04 15:14 25.26057 51.60535 35 ft 14 kts 115°
2026-05-04 15:14 25.26080 51.60651 36 ft 18 kts 68°
2026-05-04 15:14 25.26133 51.60793 36 ft 22 kts 68°
2026-05-04 15:15 25.26172 51.60900 36 ft 1 kts 68°
2026-05-04 15:15 25.26171 51.60922 36 ft 4 kts 106°
2026-05-04 15:15 25.26144 51.60949 36 ft 8 kts 147°
2026-05-04 15:16 25.26093 51.60976 36 ft 0 kts 156°